Current weather by "City, St" or "zip code"  
 

Current Conditions: Lewistown, Lewistown Municipal Airport, MT

Overcast


49.0 F

Last Updated on Oct 29 2020, 5:54 pm MDT
Humidity: 64%
Wind Speed: N 0.0 mph
Barometer 30.03 in
Dewpoint: 37.0 F
Visibility: 10.00 mi
Precip: --
Heat Index: NA
Wind Chill: NA
Current conditions at:

Lewistown, Lewistown Municipal Airport, MT (KLWT)

Lat: 47.04917 Lon: 109.46639

Local Radar Image active severe weather and emergency alerts image image weather storm and storm spotter reports image weather observation monitoring service image
Local
Radar
Active
Alerts
Storm Reports Obs
Monitoring

Sign-up For Email & Text Message Weather Alert Notification Services



Advertise Here

Observation History for Lewistown, Lewistown Municipal Airport, MT


Time Wind
(mph)
Vis
(mi)
Weather Precip (in) Temperature (F) Relative
Humidity
Wind
Chill
(F)
Heat
Index
(F)
Pressure
Air Dwpt altimeter
(in)
sea level
(mb)
Rmks
5:54 pm MDT N 0.0 10.00 Overcast -- 49.0 37.0 64% NA NA 30.03 1016.9
4:54 pm MDT NW 11.5 10.00 Overcast -- 51.0 36.0 56% 47 NA 30.02 1016.5
3:54 pm MDT NW 9.2 10.00 Overcast -- 51.0 37.0 59% 48 NA 30.00 1015.9
2:54 pm MDT NW 10.4 10.00 Overcast -- 50.0 35.1 57% 46 NA 29.99 1015.5
1:54 pm MDT NW 10.4 10.00 Mostly Cloudy -- 50.0 35.1 57% 46 NA 29.98 1015.2
12:54 pm MDT W 8.1 10.00 Mostly Cloudy -- 52.0 33.1 49% 49 NA 29.98 1015.0
11:54 am MDT W 3.5 10.00 Mostly Cloudy -- 49.0 37.0 64% NA NA 29.97 1015.0
10:54 am MDT N 0.0 10.00 Overcast -- 46.0 33.1 61% NA NA 29.97 1015.1
9:54 am MDT SW 12.7 10.00 Fair -- 42.0 34.0 73% 35 NA 29.96 1015.4
8:54 am MDT W 10.4 10.00 A Few Clouds -- 45.0 32.0 61% 40 NA 29.96 1015.0
7:54 am MDT 3.5 10.00 Overcast -- 42.0 32.0 68% NA NA 29.94 1014.9
6:54 am MDT SW 5.8 10.00 Mostly Cloudy -- 40.0 32.0 73% 36 NA 29.94 1015.2
5:54 am MDT W 9.2 10.00 Overcast -- 43.0 30.9 63% 38 NA 29.95 1015.0
4:54 am MDT N 0.0 10.00 Mostly Cloudy -- 41.0 30.0 65% NA NA 29.96 1015.0
3:54 am MDT W 9.2 10.00 Fair -- 40.0 30.9 70% 34 NA 29.97 1015.3
2:54 am MDT SW 12.7 10.00 Fair -- 41.0 32.0 70% 34 NA 29.98 1015.6
1:54 am MDT SW 15.0 10.00 Fair -- 41.0 33.1 73% 33 NA 29.99 1016.3
11:54 pm MDT SW 13.8 10.00 Overcast -- 42.0 34.0 73% 35 NA 30.02 1017.6
10:54 pm MDT SW 12.7 10.00 Overcast -- 41.0 35.1 79% 34 NA 30.03 1018.3
9:54 pm MDT SW 10.4 10.00 Overcast -- 41.0 35.1 79% 35 NA 30.04 1018.5
8:54 pm MDT SW 11.5 10.00 Overcast -- 40.0 34.0 79% 33 NA 30.05 1019.1
7:54 pm MDT SE 5.8 10.00 Overcast -- 39.0 33.1 79% 35 NA 30.06 1019.7
6:54 pm MDT SE 4.6 10.00 Overcast -- 40.0 34.0 79% 37 NA 30.07 1019.9

Regional Weather Observation


Malmstrom Air Force Base, MT (KGFA)

Mostly Cloudy
55.0 F

Great Falls, Great Falls International Airport, MT (KGTF)

Fair
54.0 F

Havre, Havre City-County Airport, MT (KHVR)

Fair
46.0 F

Helena Regional Airport, MT (KHLN)

Fair
45.0 F

Livingston, Mission Field Airport, MT (KLVM)

A Few Clouds
60.0 F

Billings, Billings Logan International Airport, MT (KBIL)

Partly Cloudy
53.0 F